Simultaneous Nadir Overpasses (SNOs) Predictions

Prediction of SNOs between AQUA and METOP-B Satellite Orbit:

Table of predicted SNOs for the next 14.0 days since TLE Epoch: 11/12/2022
Index Date (AQUA) Time (AQUA) Lat,Lon (AQUA) SZA (AQUA ) Date (METOP-B) Time (METOP-B) Lat,Lon (METOP-B) SZA (METOP-B ) Distance(km) Time Diff (sec)
1 11/12/2022 11:40:02 -74.10,-179.99 88.23 11/12/2022 11:39:12 -74.11,-179.89 88.22 3.20 50
2 11/12/2022 12:29:30 74.15, -12.48 91.83 11/12/2022 12:29:51 74.14, -12.48 91.82 1.22 21
3 11/15/2022 06:23:53 74.10, 79.07 92.50 11/15/2022 06:22:53 74.07, 79.10 92.47 3.35 60
4 11/15/2022 07:13:19 -74.16,-113.43 87.43 11/15/2022 07:13:33 -74.16,-113.34 87.43 2.90 14
5 11/15/2022 08:02:55 74.63, 53.07 93.06 11/15/2022 08:04:03 74.64, 55.22 93.06 63.38 68
6 11/18/2022 01:07:41 -74.10, -21.87 86.81 11/18/2022 01:06:35 -74.09, -21.78 86.83 2.98 66
7 11/18/2022 01:57:08 74.11, 145.74 93.21 11/18/2022 01:57:14 74.12, 145.63 93.22 3.42 6
8 11/18/2022 02:46:39 -74.43, -47.36 86.46 11/18/2022 02:47:50 -74.41, -46.30 86.49 31.53 71
9 11/20/2022 19:51:28 74.05,-122.69 93.79 11/20/2022 19:50:15 74.03,-122.84 93.77 5.25 73
10 11/20/2022 20:40:54 -74.11, 44.83 86.16 11/20/2022 20:40:55 -74.13, 44.73 86.14 3.60 1
11 11/20/2022 21:30:22 74.18,-147.70 93.93 11/20/2022 21:31:33 74.20,-147.74 93.96 2.96 71
12 11/23/2022 14:35:12 -73.94, 136.65 85.74 11/23/2022 14:34:00 -73.88, 135.88 85.78 24.41 72
13 11/23/2022 15:24:42 74.12, -56.12 94.46 11/23/2022 15:24:35 74.11, -56.23 94.45 3.40 7



Historial Predications of SNOs between AQUA and METOP-B
